Hourly Data Report for November 01, 2021

MOUNT FOREST (AUT)
ONTARIO
Current Station Operator: ECCC - MSC

43°59'00.000" N
80°45'00.000" W
414.50 m
6145504
71631
WLS

Download Data

Hourly Data (November 2021)
Hourly Data Report for November 1, 2021
TIME
LST
Temp Definition
°C
Dew Point Definition
°C
Rel Hum Definition
%
Precip. Amount Definition
mm

Wind Dir Definition
10's deg

Wind Spd Definition
km/h
Visibility Definition
km
Stn Press Definition
kPa
Hmdx Definition


Wind Chill Definition


Weather Definition


00:00 5.0 1.8 80 0.0 29 16   96.23     LegendNANA
01:00 4.5 0.7 76 0.0 30 15   96.29     LegendNANA
02:00 3.8 0.5 79 0.0 27 12   96.34     LegendNANA
03:00 4.2 0.3 76 0.0 30 18   96.45     LegendNANA
04:00 4.0 0.4 78 0.1 28 12   96.48     LegendNANA
05:00 3.4 -0.2 78 0.0 28 10   96.57     LegendNANA
06:00 3.7 0.1 77 0.0 27 14   96.64     LegendNANA
07:00 3.3 -0.2 78 0.0 28 12   96.67     LegendNANA
08:00 3.4 -0.1 78 0.0 27 11   96.77     LegendNANA
09:00 3.4 1.3 86 0.0 27 14   96.82     LegendNANA
10:00 4.4 1.9 84 0.7 28 11   96.83     LegendNANA
11:00 4.8 0.4 73 0.0 27 14   96.90     LegendNANA
12:00 4.0 1.3 83 0.0 26 18   96.91     LegendNANA
13:00 5.0 -0.6 67 0.0 27 19   96.89     LegendNANA
14:00 5.2 -2.4 58 0.0 27 19   96.91     LegendNANA
15:00 5.3 -2.3 58 0.0 27 16   96.91     LegendNANA
16:00 4.9 -3.1 56 0.0 26 14   96.94     LegendNANA
17:00 4.4 -2.0 63 0.0 25 12   96.93     LegendNANA
18:00 4.4 -1.9 63 0.0 25 14   96.94     LegendNANA
19:00 4.4 -2.6 60 0.0 24 13   96.96     LegendNANA
20:00 4.3 -2.3 62 0.0 24 11   96.97     LegendNANA
21:00 4.2 -2.4 62 0.0 24 11   96.97     LegendNANA
22:00 3.4 -3.0 63 0.0 27 8   96.97     LegendNANA
23:00 3.4 -2.5 65 0.0 25 8   96.92     LegendNANA

Notes on Data Quality.

Legend

  • E = Estimated
  • M = Missing
  • NA = Not Available*
  • [empty] = Indicates an unobserved value
Date modified: